Skip to main content Skip to accessibility
This website is not compatible with your web browser. You should install a newer browser. If you live in Jersey and need help upgrading call the States of Jersey web team on 440099.
Homegov.je

Information and public services for the Island of Jersey

L'înformâtion et les sèrvices publyis pouor I'Île dé Jèrri

  • Choose the service you want to log in to:

  • gov.je

    Update your notification preferences

  • one.gov.je

    Access government services

  • CAESAR

    Clear goods through customs or claim relief

  • Talentlink

    View or update your States of Jersey job application

Local METARs

METAR EGJJ 221720Z 28005KT 9999 SCT008 SCT033 17/16 Q1008

METAR EGJB 221720Z 23006KT 9999 FEW007 16/15 Q1008

METAR EGJA 221720Z 24007KT 9999 FEW009 17/14 Q1008

METAR LFRD 221700Z AUTO 21008KT 9999 FEW026 SCT058 OVC068 20/15 Q1009 TEMPO 4500 SHRA SCT030TCU

METAR LFRC 221700Z AUTO 26007KT 9999 FEW013 SCT018 BKN025 17/15 Q1008 NOSIG

 

 

 

​Apologies to the disruption to normal service. Commercial Aviation Services are available from the Jersey Met Forecaster 01534 448765.

Times are in Greenwich Mean Time (GMT) and not British Summer Time (BST). They will be one hour different during BST.

Back to top
rating button